Regional Weather Roundup
Issued by NWS State College, PA

Home | Current Version | Previous Version | Text Only | Print | Product List | Glossary On
Versions: 1 2 3 4 5 6 7 8 9 10 11 12 13 14 15 16 17 18 19 20 21 22 23 24 25 26 27 28 29 30 31 32 33 34 35 36 37 38 39 40 41 42 43 44 45 46 47 48 49 50
000
ASUS41 KCTP 242010
RWRCTP

REGIONAL WEATHER ROUNDUP
NATIONAL WEATHER SERVICE STATE COLLEGE PA
300 PM EST FRI FEB 24 2017

Note: "fair" indicates few or no clouds below 12,000 feet with no
significant weather and/or obstructions to visibility.

* = STATION THAT DOES NOT REPORT PRECIPITATION /E.G. RAIN...SNOW...ETC/
    THUNDER OR FOG.

PAZ002>004-007>009-013>016-020>023-029>032-242100-
WESTERN PENNSYLVANIA

CITY           SKY/WX    TMP DP  RH WIND       PRES   REMARKS
ERIE           SUNNY     75  52  44 S16G31    29.59F
MEADVILLE      SUNNY     73  50  44 S13G24    29.63F
FRANKLIN*      MOSUNNY   72  52  49 S23       29.67F
NEW CASTLE     FAIR      76  51  41 S9G22     29.65F
BEAVER COUNTY  PTSUNNY   75  48  38 S14G23    29.67F
BUTLER*        PTSUNNY   73  52  46 S10       29.69F
PITTSBURGH INT MOSUNNY   76  49  38 S16G26    29.67F
PITTSBURGH     MOSUNNY   76  46  34 S15G23    29.68F
INDIANA*       SUNNY     75  50  41 W13G20    29.73F
LATROBE        MOSUNNY   75  50  41 SW12G21   29.72F
WASHINGTON CO* SUNNY     77  48  36 SW15G22   29.70F
$$

PAZ004>006-010>012-017>019-024>028-033>037-041-042-045-046-049>053-242100-
CENTRAL PENNSYLVANIA

CITY           SKY/WX    TMP DP  RH WIND       PRES   REMARKS
BRADFORD       NOT AVBL
DUBOIS         PTSUNNY   72  47  40 SW8G20    29.72F
CLEARFIELD       N/A    N/A N/A N/A MISG      29.72F
JOHNSTOWN      MOSUNNY   70  48  45 S9        29.74F
ALTOONA        SUNNY     74  51  44 S14G23    29.75F
STATE COLLEGE  MOSUNNY   73  50  43 S10G21    29.74F
WILLIAMSPORT   MOSUNNY   75  51  43 S8G24     29.73F
SELINSGROVE    SUNNY     74  52  46 S14G28    29.76F
FT INDIANTOWN  MOSUNNY   76  51  41 S12G21    29.78F
CAPITAL CITY   SUNNY     78  48  34 S18G24    29.78F
HARRISBURG     MOSUNNY   74  50  42 S10G20    29.78F
YORK           MOSUNNY   74  53  48 S9G18     29.80F
$$

PAZ038>040-043-044-047-048-054-055-060>062-067>071-242100-
EASTERN PENNSYLVANIA

CITY           SKY/WX    TMP DP  RH WIND       PRES   REMARKS
SCRANTON       MOSUNNY   74  50  42 S13G21    29.78F
MOUNT POCONO   MOSUNNY   67  50  54 SW13G25   29.85S
ALLENTOWN      MOSUNNY   76  50  40 S17G23    29.82F
QUAKERTOWN*    MOCLDY    73  54  49 SW7       29.85S
READING        SUNNY     75  53  46 S15G24    29.81S
LANCASTER      MOSUNNY   75  55  49 S21       29.81F
COATESVILLE    CLEAR     72  50  46 S8G18     29.87S
POTTSTOWN      MOSUNNY   73  51  46 SW10      29.86S
BLUE BELL      PTSUNNY   72  54  53 S12G17    29.85S
DOYLESTOWN     PTSUNNY   71  53  52 SW8       29.85S
WILLOW GROVE   NOT AVBL
NORTH PHILA    PTSUNNY   75  55  49 SW13G18   29.87S
PHILADELPHIA   PTSUNNY   74  54  49 S12       29.86F
$$




USA.gov is the U.S. government's official web portal to all federal, state and local government web resources and services.